[[{"header":{"parameterUnit":"m.s-1","parameterCategory":1,"la1":30.2991,"la2":30.254,"lo1":-89.0895,"lo2":-89.0444,"dy":0.0017,"dx":0.0017,"nx":28,"ny":28,"refTime":"2024-05-21T09:00:00:Z","depth":0,"parameterNumber":2,"parameterNumberName":"U-component_of_WINDS"},"data":[0,0,0,0,0,0,0,0,0,0,0,0,0,0,0,0,0,0,0,0,0,0,0,0,0,0,0,0,0,0,0,0,0,0,0,0,0,0,0,0,0,0,0,0,0,0,0,0,0,0,0,0,0,0,0,0,0,0,-1.8336,-1.8336,0,-1.8347,-1.8347,-1.8347,-1.8341,-1.834,-1.834,-1.834,-1.8351,-1.8352,-1.8353,0,0,0,0,0,0,0,0,0,0,0,0,0,-1.8309,-1.8309,-1.8336,-1.8336,-1.8336,-1.8347,-1.8347,-1.8347,-1.8341,-1.834,-1.834,-1.834,-1.8351,-1.8352,-1.8353,0,0,0,0,0,0,0,0,0,0,0,0,0,-1.832,-1.8309,-1.8336,-1.8334,-1.8334,-1.8347,-1.8347,-1.8347,-1.8341,-1.834,-1.834,-1.8339,-1.8351,-1.8352,-1.8353,-1.8368,0,0,-1.8355,-1.8356,0,0,0,0,0,0,0,0,-1.832,-1.8321,-1.8334,-1.8334,-1.8334,-1.8342,-1.8342,-1.8354,-1.8341,-1.8338,-1.834,-1.8339,-1.8349,-1.835,-1.8353,-1.8368,-1.8369,-1.8356,-1.8356,-1.8356,-1.8357,0,0,0,0,0,0,0,-1.8319,-1.8321,-1.834,-1.8334,-1.8334,-1.8333,-1.8334,-1.8344,-1.8346,-1.8339,-1.8338,-1.8339,-1.8349,-1.8352,-1.8353,-1.8369,-1.8356,-1.8356,-1.8357,-1.8357,-1.8397,-1.8397,0,0,0,0,0,0,-1.8318,-1.832,-1.834,-1.8341,-1.8326,-1.8334,-1.8335,-1.834,-1.8346,-1.8346,-1.834,-1.8339,-1.8351,-1.8352,-1.8353,-1.8371,-1.8356,-1.8357,-1.8358,-1.8396,-1.8397,-1.8398,0,0,0,0,0,0,-1.8318,-1.832,-1.8339,-1.833,-1.8333,-1.8335,-1.834,-1.834,-1.8344,-1.8347,-1.8347,-1.8343,-1.835,-1.8352,-1.8364,-1.8371,-1.8358,-1.8359,-1.8396,-1.8397,-1.8397,-1.8406,0,0,0,0,0,0,-1.8317,-1.832,-1.8326,-1.833,-1.8333,-1.835,-1.8341,-1.8341,-1.8345,-1.8345,-1.835,-1.835,-1.835,-1.8363,-1.8365,-1.8372,-1.8359,-1.8395,-1.8396,-1.8397,-1.8405,-1.8407,-1.8409,0,0,0,0,0,-1.8316,-1.8328,-1.8326,-1.8328,-1.834,-1.835,-1.8352,-1.8351,-1.8346,-1.8352,-1.8354,-1.835,-1.837,-1.8364,-1.8367,-1.8374,-1.8395,-1.8396,-1.8397,-1.8404,-1.8407,-1.8409,0,0,0,0,0,0,-1.8324,-1.8328,-1.8326,-1.834,-1.8345,-1.8349,-1.8356,-1.8354,-1.836,-1.8359,-1.8358,-1.836,-1.8372,-1.8374,-1.8367,-1.8389,-1.8382,-1.8383,-1.8386,-1.8389,-1.839,-1.8389,-1.836,0,0,0,0,0,-1.8327,-1.8335,-1.8339,-1.835,-1.8353,-1.8354,-1.8359,-1.8358,-1.8363,-1.8365,-1.8368,-1.8372,-1.838,-1.8385,-1.8392,-1.8406,-1.8407,-1.8412,-1.8414,-1.8415,-1.8416,-1.8423,-1.8426,-1.8401,-1.8401,-1.8401,0,0,-1.8334,-1.8338,-1.8343,-1.8352,-1.8356,-1.8363,-1.8356,-1.8365,-1.837,-1.8366,-1.8377,-1.838,-1.8385,-1.8398,-1.8404,-1.84,-1.8424,-1.8417,-1.8418,-1.8418,-1.8425,-1.8427,-1.8429,-1.8402,-1.8402,-1.8402,0,0,-1.8351,-1.8354,-1.8364,-1.8368,-1.8373,-1.8374,-1.8377,-1.8381,-1.8383,-1.8394,-1.8391,-1.8397,-1.841,-1.8414,-1.8418,-1.8435,-1.8432,-1.8438,-1.8447,-1.8453,-1.8455,-1.8457,-1.8462,-1.8464,-1.8439,-1.8439,-1.8439,0,-1.8358,-1.837,-1.837,-1.8378,-1.8382,-1.8379,-1.8389,-1.8392,-1.84,-1.8403,-1.8399,-1.8414,-1.8418,-1.8431,-1.8436,-1.8439,-1.8441,-1.8437,-1.8455,-1.8457,-1.8458,-1.8463,-1.8466,-1.844,-1.844,-1.844,-1.844,0,-1.8379,-1.8387,-1.8394,-1.8401,-1.8406,-1.8416,-1.8416,-1.8422,-1.8421,-1.8422,-1.8433,-1.8437,-1.8445,-1.8448,-1.8447,-1.8461,-1.8459,-1.8455,-1.8448,-1.8461,-1.8466,-1.8468,-1.8441,-1.844,-1.844,-1.844,0,0,-1.84,-1.8406,-1.8409,-1.8412,-1.8418,-1.8424,-1.8433,-1.844,-1.8444,-1.845,-1.8457,-1.8468,-1.8464,-1.8469,-1.8468,-1.8474,-1.8487,-1.847,-1.847,-1.8472,-1.8502,-1.8504,-1.8506,-1.8485,-1.8486,-1.8486,-1.8501,0,-1.8416,-1.8431,-1.8431,-1.8445,-1.8452,-1.8449,-1.8457,-1.8461,-1.8463,-1.8469,-1.8471,-1.8478,-1.8474,-1.8476,-1.8482,-1.8484,-1.8493,-1.8483,-1.8491,-1.8492,-1.8489,-1.8509,-1.8511,-1.8524,-1.8503,-1.8503,-1.8503,0,-1.8436,-1.8441,-1.8456,-1.8461,-1.8464,-1.8471,-1.8477,-1.8483,-1.8488,-1.8489,-1.8493,-1.8492,-1.8501,-1.8494,-1.8507,-1.85,-1.8504,-1.8505,-1.8506,-1.8505,-1.8498,-1.8508,-1.8529,-1.853,-1.8507,-1.8506,-1.8506,0,-1.8448,-1.846,-1.847,-1.8472,-1.8478,-1.8483,-1.8486,-1.849,-1.8494,-1.85,-1.8502,-1.8509,-1.8513,-1.8518,-1.8519,-1.8514,-1.8531,-1.8524,-1.8531,-1.8531,-1.8533,-1.8533,-1.8554,-1.8538,-1.8538,-1.8538,-1.8538,0,-1.8465,-1.8474,-1.8475,-1.8481,-1.8491,-1.8491,-1.8501,-1.8503,-1.8507,-1.8514,-1.8512,-1.8518,-1.8519,-1.8525,-1.8526,-1.8535,-1.8537,-1.8538,-1.8537,-1.8537,-1.8537,-1.8538,-1.8537,-1.8538,-1.8538,-1.8538,-1.8538,0,-1.848,-1.8481,-1.8492,-1.8496,-1.8497,-1.8504,-1.8508,-1.8514,-1.8516,-1.8524,-1.8526,-1.8528,-1.8535,-1.8537,-1.8545,-1.8546,-1.8557,-1.8556,-1.8555,-1.8554,-1.8561,-1.856,-1.8583,-1.8585,-1.8568,-1.8568,-1.8568,0,-1.849,-1.8496,-1.8501,-1.8505,-1.8508,-1.8515,-1.8519,-1.852,-1.8524,-1.853,-1.8535,-1.8542,-1.8548,-1.856,-1.8562,-1.8569,-1.8568,-1.8575,-1.8568,-1.8568,-1.8566,-1.8566,-1.8566,-1.8576,-1.8576,-1.8576,-1.8577,0,-1.8507,-1.8507,-1.8513,-1.8519,-1.8524,-1.8529,-1.8534,-1.8537,-1.8539,-1.8544,-1.8551,-1.8555,-1.8564,-1.8571,-1.8578,-1.858,-1.8578,-1.8579,-1.858,-1.858,-1.8578,-1.8578,-1.8557,-1.8578,-1.8578,-1.8578,-1.8578,-1.8578,-1.8519,-1.8524,-1.8528,-1.8535,-1.8539,-1.8543,-1.8548,-1.8551,-1.8557,-1.8564,-1.8564,-1.8572,-1.8577,-1.8585,-1.8588,-1.8594,-1.8592,-1.8595,-1.8595,-1.8596,-1.8596,-1.8578,-1.8596,-1.8596,-1.8596,-1.8596,-1.8596,0,-1.8535,-1.8537,-1.8544,-1.855,-1.8555,-1.8553,-1.8559,-1.8563,-1.857,-1.8574,-1.858,-1.8588,-1.8595,-1.8598,-1.8605,-1.8609,-1.8608,-1.8611,-1.861,-1.861,-1.8598,-1.8595,-1.8611,-1.8611,-1.8611,-1.8611,-1.8611,-1.8611,-1.8544,-1.8553,-1.8553,-1.8564,-1.8567,-1.8574,-1.8577,-1.8581,-1.8585,-1.8594,-1.86,-1.8602,-1.8606,-1.8613,-1.8619,-1.8619,-1.8622,-1.8624,-1.8624,-1.8613,-1.8611,-1.861,-1.8607,-1.8625,-1.8625,-1.8636,-1.8636,-1.8636]},{"header":{"parameterUnit":"m.s-1","parameterCategory":1,"la1":30.2991,"la2":30.254,"lo1":-89.0895,"lo2":-89.0444,"dy":0.0017,"dx":0.0017,"nx":28,"ny":28,"refTime":"2024-05-21T09:00:00:Z","depth":0,"parameterNumber":3,"parameterNumberName":"V-component_of_WINDS"},"data":[0,0,0,0,0,0,0,0,0,0,0,0,0,0,0,0,0,0,0,0,0,0,0,0,0,0,0,0,0,0,0,0,0,0,0,0,0,0,0,0,0,0,0,0,0,0,0,0,0,0,0,0,0,0,0,0,0,0,4.8442,4.8443,0,4.8549,4.8551,4.8552,4.8511,4.8508,4.8506,4.8503,4.8609,4.8614,4.8619,0,0,0,0,0,0,0,0,0,0,0,0,0,4.8195,4.8199,4.8442,4.8443,4.8444,4.8549,4.8551,4.8552,4.8511,4.8508,4.8505,4.8502,4.8607,4.8613,4.8619,0,0,0,0,0,0,0,0,0,0,0,0,0,4.8302,4.8201,4.8441,4.8437,4.8437,4.8549,4.8551,4.8552,4.8512,4.8508,4.8504,4.8501,4.8605,4.8613,4.862,4.8741,0,0,4.8644,4.8647,0,0,0,0,0,0,0,0,4.8296,4.8311,4.8436,4.8437,4.8438,4.8513,4.8502,4.8616,4.8513,4.8483,4.8503,4.8499,4.858,4.8589,4.8617,4.8746,4.8751,4.8644,4.8649,4.8652,4.8654,0,0,0,0,0,0,0,4.8289,4.8306,4.8484,4.8438,4.8439,4.8427,4.8438,4.8523,4.8551,4.8486,4.8483,4.8496,4.8579,4.861,4.8619,4.8752,4.8644,4.8651,4.8656,4.8659,4.8983,4.8987,0,0,0,0,0,0,4.8281,4.83,4.8481,4.8487,4.8357,4.8435,4.8447,4.8493,4.855,4.8555,4.85,4.8494,4.8599,4.8611,4.8623,4.8766,4.8652,4.8659,4.8664,4.8979,4.8984,4.8988,0,0,0,0,0,0,4.8276,4.8298,4.8476,4.8393,4.8415,4.8443,4.8494,4.8497,4.8527,4.856,4.8564,4.8526,4.8596,4.8612,4.8712,4.8769,4.8663,4.867,4.8974,4.8981,4.8986,4.9055,0,0,0,0,0,0,4.8269,4.8296,4.8344,4.8395,4.842,4.8565,4.8498,4.8501,4.8541,4.8535,4.8586,4.8591,4.8595,4.8701,4.872,4.8778,4.8676,4.8969,4.8977,4.8984,4.9048,4.9063,4.9076,0,0,0,0,0,4.8261,4.8359,4.8347,4.8369,4.848,4.8569,4.8583,4.8586,4.8546,4.8593,4.8614,4.859,4.8761,4.8711,4.8732,4.8794,4.8965,4.8975,4.8984,4.9042,4.906,4.9076,0,0,0,0,0,0,4.8313,4.8365,4.8353,4.847,4.8516,4.8562,4.8621,4.8606,4.8662,4.8654,4.8654,4.8666,4.8768,4.8791,4.8735,4.8913,4.8857,4.887,4.8894,4.8912,4.8925,4.8916,4.8682,0,0,0,0,0,4.8339,4.8408,4.8449,4.8549,4.8573,4.8593,4.8632,4.8631,4.8677,4.8695,4.8724,4.8768,4.8831,4.8873,4.8933,4.9052,4.9061,4.9104,4.9118,4.913,4.9141,4.9202,4.9221,4.9018,4.9018,4.9018,0,0,4.8392,4.8429,4.8472,4.8561,4.8595,4.8665,4.861,4.8686,4.8737,4.8706,4.8802,4.8825,4.8874,4.8983,4.9032,4.9005,4.9199,4.9141,4.915,4.9155,4.9213,4.9232,4.925,4.9024,4.9023,4.9022,0,0,4.8523,4.856,4.8645,4.8682,4.8735,4.8748,4.8769,4.8818,4.8832,4.8928,4.8906,4.8966,4.9076,4.9111,4.9143,4.9287,4.9266,4.9307,4.9379,4.9439,4.9455,4.9469,4.9517,4.9535,4.9318,4.9318,4.9319,0,4.8581,4.8687,4.8691,4.8769,4.8807,4.8785,4.887,4.8905,4.8975,4.9001,4.897,4.9106,4.9138,4.9254,4.9289,4.9317,4.9338,4.93,4.9453,4.9467,4.948,4.9526,4.9545,4.9323,4.9322,4.9322,4.9322,0,4.8755,4.8828,4.8891,4.896,4.9006,4.9087,4.9102,4.9147,4.9142,4.9157,4.9254,4.9292,4.9358,4.9386,4.9381,4.95,4.9481,4.9452,4.9395,4.9504,4.9547,4.9565,4.9329,4.9328,4.9326,4.9325,0,0,4.8921,4.8992,4.9014,4.9045,4.9102,4.9158,4.9237,4.9304,4.9341,4.9391,4.9455,4.9549,4.9521,4.9558,4.9557,4.961,4.9718,4.9574,4.9575,4.9597,4.9848,4.9869,4.9889,4.9705,4.9709,4.9712,4.9843,0,4.9055,4.9196,4.9201,4.9329,4.9395,4.9374,4.9443,4.9484,4.9501,4.9558,4.9576,4.9641,4.9601,4.9623,4.9675,4.9694,4.9768,4.9685,4.9763,4.9765,4.9749,4.9912,4.9934,5.0057,4.9861,4.9864,4.9866,0,4.923,4.9285,4.942,4.9466,4.9494,4.9556,4.9616,4.9672,4.9718,4.9726,4.9767,4.9758,4.9836,4.9779,4.9886,4.9829,4.9861,4.9875,4.988,4.9885,4.982,4.9919,5.0096,5.0114,4.9893,4.9891,4.9889,0,4.9335,4.9443,4.9537,4.9564,4.9621,4.9664,4.969,4.9732,4.9771,4.9823,4.9848,4.9908,4.9941,4.9987,4.9993,4.9951,5.0099,5.0043,5.0106,5.0106,5.0136,5.0134,5.0318,5.0161,5.0161,5.0161,5.016,0,4.9482,4.9565,4.9584,4.9642,4.9733,4.9737,4.9826,4.9848,4.9886,4.9945,4.9931,4.9987,4.9994,5.0051,5.0056,5.0142,5.0158,5.0164,5.0164,5.0164,5.0163,5.0184,5.0174,5.0166,5.0165,5.0164,5.0163,0,4.9614,4.9631,4.9731,4.9777,4.979,4.9855,4.9893,4.9947,4.9962,5.0037,5.0055,5.0078,5.0144,5.0156,5.0234,5.0238,5.034,5.0332,5.0324,5.0323,5.0384,5.0377,5.0586,5.0612,5.044,5.0442,5.0444,0,4.9706,4.9769,4.9821,4.9861,4.9889,4.9953,4.9992,4.9999,5.004,5.0096,5.0143,5.0208,5.026,5.0366,5.0389,5.0448,5.044,5.0509,5.0448,5.0446,5.0438,5.0433,5.0438,5.052,5.0522,5.0523,5.0524,0,4.9866,4.9871,4.993,4.9991,5.0039,5.0087,5.0133,5.0166,5.0178,5.0225,5.0293,5.0334,5.0413,5.0477,5.0535,5.0559,5.0543,5.0544,5.0561,5.056,5.0552,5.0554,5.0353,5.0538,5.0537,5.0536,5.0535,5.0535,4.9979,5.0033,5.0078,5.0143,5.0178,5.0221,5.0273,5.0295,5.0352,5.0418,5.0418,5.0492,5.0534,5.0611,5.0639,5.0695,5.0673,5.0699,5.0705,5.071,5.0715,5.0545,5.0706,5.0706,5.0706,5.0705,5.0705,0,5.0136,5.0164,5.0224,5.0289,5.0339,5.0322,5.0371,5.0414,5.0479,5.0521,5.0572,5.0649,5.0711,5.0738,5.0798,5.0838,5.0832,5.0853,5.0849,5.0854,5.0733,5.0711,5.0857,5.0857,5.0857,5.0857,5.0857,5.0857,5.0224,5.0314,5.0324,5.043,5.0457,5.053,5.0559,5.0597,5.063,5.0717,5.0769,5.0787,5.0822,5.0884,5.0938,5.0945,5.0966,5.099,5.0993,5.0878,5.0863,5.0848,5.0827,5.0996,5.0996,5.1109,5.111,5.1111]}]]